Total_Precipitation_Accumulation
1.78 1.60 1.39 1.31 1.25 1.11 1.06 1.04 0.98 0.95 0.91 0.84 0.80 0.71 0.65 0.60 0.56 0.50 0.46 0.48 0.64 0.98 1.30 1.50 1.56 1.53 1.56 1.52 1.32 1.23 1.17 1.13 1.08 1.02 0.98 0.96 0.94 0.93 0.95 0.94 0.95 0.97 0.99
1.97 1.87 1.69 1.55 1.43 1.30 1.19 1.14 1.03 1.00 0.99 0.93 0.85 0.77 0.74 0.68 0.64 0.60 0.48 0.42 0.48 0.67 1.07 1.48 1.78 1.89 1.92 1.94 1.76 1.59 1.47 1.36 1.29 1.17 1.12 1.11 1.06 1.04 1.04 1.05 1.05 1.07 1.09
2.14 2.12 1.95 1.79 1.57 1.51 1.49 1.41 1.27 1.16 1.08 1.03 0.96 0.87 0.84 0.77 0.70 0.71 0.64 0.53 0.48 0.50 0.73 1.17 1.59 1.82 1.96 2.13 2.15 2.02 1.78 1.57 1.44 1.34 1.25 1.22 1.17 1.14 1.16 1.19 1.20 1.20 1.20
2.25 2.32 2.15 2.00 1.89 1.73 1.65 1.58 1.47 1.35 1.24 1.17 1.10 1.04 1.00 0.93 0.78 0.72 0.69 0.66 0.63 0.56 0.58 0.84 1.18 1.44 1.66 1.91 2.18 2.31 2.17 1.85 1.58 1.40 1.33 1.30 1.28 1.27 1.27 1.30 1.33 1.33 1.31
2.61 2.48 2.29 2.12 2.16 2.08 1.86 1.73 1.62 1.45 1.34 1.25 1.19 1.15 1.10 1.03 0.95 0.86 0.78 0.69 0.63 0.62 0.63 0.73 0.87 1.03 1.24 1.48 1.85 2.17 2.29 2.21 1.90 1.61 1.44 1.38 1.35 1.38 1.45 1.50 1.48 1.44 1.43
2.84 2.82 2.61 2.48 2.41 2.35 2.16 1.94 1.75 1.59 1.42 1.41 1.37 1.29 1.24 1.21 1.10 1.01 0.95 0.87 0.76 0.66 0.65 0.69 0.78 0.82 0.94 1.13 1.41 1.75 1.99 2.15 2.13 1.98 1.77 1.68 1.62 1.60 1.65 1.70 1.69 1.68 1.70
2.89 2.95 2.82 2.75 2.66 2.45 2.30 2.16 1.99 1.80 1.61 1.59 1.61 1.45 1.31 1.28 1.25 1.12 1.05 0.98 0.92 0.86 0.81 0.79 0.81 0.81 0.82 0.95 1.09 1.34 1.57 1.75 1.97 2.08 2.00 1.89 1.84 1.84 1.85 1.89 1.90 1.89 1.95
3.08 3.04 2.90 2.87 2.88 2.69 2.52 2.36 2.25 2.05 1.83 1.77 1.78 1.78 1.59 1.44 1.28 1.14 1.08 1.01 0.95 0.96 0.97 0.96 0.95 0.95 0.90 0.88 0.90 1.04 1.22 1.50 1.84 2.19 2.27 2.19 2.18 2.17 2.19 2.22 2.26 2.28 2.31
3.25 3.08 3.01 3.00 3.01 2.96 2.83 2.70 2.63 2.43 2.19 2.06 1.93 2.04 1.88 1.53 1.26 1.16 1.09 1.03 0.99 0.98 1.01 1.05 1.07 1.10 1.05 0.97 0.93 0.96 1.09 1.32 1.72 2.19 2.47 2.53 2.52 2.50 2.63 2.72 2.77 2.80 2.72
3.28 3.20 3.11 3.08 3.08 3.05 2.97 2.95 2.90 2.77 2.60 2.45 2.27 2.03 1.82 1.58 1.45 1.28 1.13 1.08 1.08 1.06 1.08 1.11 1.15 1.21 1.20 1.10 1.09 1.12 1.17 1.30 1.59 2.08 2.56 2.85 2.99 3.08 3.18 3.28 3.31 3.32 3.20
3.24 3.16 3.04 3.00 3.00 3.06 3.08 3.02 2.95 2.93 2.76 2.54 2.37 2.21 2.05 1.72 1.47 1.39 1.20 1.06 1.05 1.01 1.03 1.08 1.11 1.14 1.21 1.16 1.16 1.29 1.39 1.43 1.64 2.01 2.58 3.09 3.39 3.64 3.81 3.89 3.90 3.81 3.69
3.11 3.04 2.96 2.84 2.78 2.86 2.99 3.11 3.03 2.96 2.90 2.68 2.43 2.21 2.10 1.95 1.71 1.56 1.41 1.20 1.15 1.05 1.00 1.02 1.09 1.17 1.28 1.26 1.29 1.50 1.51 1.55 1.74 2.07 2.56 3.03 3.37 3.66 3.86 4.09 4.16 4.08 4.01
2.91 2.71 2.73 2.73 2.64 2.60 2.75 2.96 3.05 2.96 2.89 2.80 2.63 2.40 2.20 1.96 1.77 1.77 1.77 1.62 1.46 1.25 1.17 1.13 1.11 1.17 1.34 1.43 1.44 1.60 1.53 1.59 1.69 1.90 2.29 2.69 2.91 3.11 3.33 3.69 4.02 4.09 4.00
2.92 2.70 2.60 2.66 2.72 2.66 2.66 2.77 2.81 2.75 2.75 2.74 2.66 2.56 2.43 2.18 1.99 1.93 1.96 2.09 2.06 1.75 1.53 1.38 1.31 1.35 1.42 1.53 1.61 1.69 1.51 1.68 1.71 1.76 1.96 2.22 2.32 2.38 2.50 2.73 3.08 3.38 3.57
2.75 2.69 2.63 2.58 2.59 2.67 2.70 2.76 2.73 2.58 2.52 2.53 2.48 2.47 2.41 2.25 2.14 2.06 2.09 2.24 2.50 2.38 1.93 1.55 1.49 1.51 1.54 1.60 1.68 1.48 1.30 1.54 1.61 1.61 1.67 1.77 1.83 1.81 1.87 2.05 2.23 2.40 2.60
2.37 2.47 2.52 2.45 2.43 2.43 2.48 2.60 2.63 2.53 2.43 2.36 2.31 2.30 2.26 2.15 2.12 2.11 2.10 2.13 2.28 2.44 2.20 1.62 1.38 1.35 1.43 1.48 1.62 1.37 1.22 1.44 1.38 1.37 1.45 1.53 1.58 1.55 1.58 1.71 1.84 1.92 1.97
2.12 2.17 2.23 2.24 2.23 2.24 2.23 2.29 2.32 2.32 2.30 2.19 2.15 2.16 2.11 2.00 2.00 1.98 2.00 2.02 2.03 2.09 2.08 1.60 1.27 1.19 1.27 1.31 1.36 1.25 1.12 1.10 1.07 1.22 1.24 1.30 1.36 1.39 1.43 1.49 1.59 1.68 1.73
1.86 1.95 1.98 2.01 2.03 2.03 2.00 2.00 2.00 1.98 2.02 1.99 1.92 1.93 1.92 1.90 1.88 1.82 1.86 1.86 1.81 1.76 1.76 1.59 1.28 1.16 1.11 1.07 1.07 1.07 1.00 0.95 0.91 1.05 1.07 1.10 1.17 1.24 1.28 1.31 1.40 1.48 1.54
1.61 1.71 1.81 1.82 1.83 1.84 1.79 1.75 1.74 1.71 1.65 1.66 1.67 1.70 1.69 1.77 1.84 1.80 1.76 1.69 1.60 1.56 1.58 1.55 1.30 1.10 1.03 0.99 1.04 1.03 0.93 0.88 0.83 0.89 0.94 0.95 1.00 1.09 1.19 1.24 1.26 1.30 1.31
1.54 1.54 1.61 1.66 1.69 1.73 1.73 1.66 1.63 1.66 1.63 1.55 1.55 1.62 1.65 1.67 1.69 1.68 1.67 1.62 1.58 1.61 1.58 1.60 1.49 1.28 1.17 1.09 1.13 1.13 1.07 0.94 0.87 0.82 0.92 0.97 1.02 1.07 1.09 1.11 1.07 1.04 1.07
1.61 1.54 1.55 1.60 1.64 1.70 1.75 1.78 1.78 1.80 1.83 1.82 1.74 1.68 1.67 1.73 1.74 1.72 1.69 1.62 1.62 1.72 1.74 1.74 1.64 1.44 1.27 1.22 1.23 1.14 1.15 1.12 1.03 0.94 0.97 0.92 0.91 0.91 0.94 1.00 1.06 1.06 1.04
1.75 1.65 1.65 1.66 1.69 1.74 2.01 2.04 1.94 1.91 1.93 1.88 1.79 1.66 1.59 1.64 1.61 1.68 1.72 1.69 1.74 1.84 1.92 1.89 1.69 1.42 1.12 1.04 1.10 1.22 1.33 1.48 1.42 1.03 0.98 0.95 0.89 0.93 0.88 0.89 1.03 1.09 1.12
1.83 1.81 1.80 1.85 1.86 1.89 2.04 1.95 1.96 1.85 1.83 1.71 1.62 1.55 1.48 1.43 1.50 1.40 1.52 1.67 1.72 1.82 1.82 1.72 1.58 1.24 1.04 0.96 1.19 1.49 1.51 1.49 1.27 0.99 1.09 1.14 0.99 0.95 0.85 0.89 1.09 1.08 1.10
1.99 1.98 1.96 1.98 1.95 1.94 1.95 1.82 1.81 1.67 1.60 1.52 1.43 1.38 1.36 1.33 1.32 1.37 1.46 1.56 1.44 1.37 1.34 1.25 1.20 1.12 1.06 1.08 1.31 1.61 1.69 1.66 1.40 1.20 1.25 1.38 1.13 1.03 0.88 0.86 1.02 1.03 1.07
2.12 2.07 1.97 1.86 1.76 1.71 1.73 1.65 1.64 1.51 1.45 1.39 1.29 1.25 1.28 1.22 1.37 1.61 1.63 1.57 1.37 1.24 1.28 1.33 1.34 1.32 1.39 1.45 1.51 1.77 1.99 2.15 1.90 1.44 1.27 1.36 1.17 1.11 1.06 0.96 0.95 1.04 1.03
1.92 1.86 1.80 1.68 1.54 1.42 1.48 1.51 1.53 1.40 1.37 1.27 1.21 1.17 1.28 1.27 1.47 1.67 1.57 1.52 1.42 1.23 1.20 1.22 1.21 1.21 1.18 1.23 1.46 1.57 1.93 2.41 2.18 1.74 1.24 1.35 1.32 1.40 1.64 1.17 0.95 0.98 1.04